Change the Weather History Date:

Monday, July 23, 2012

  Actual Average Record
Temperature  
Mean Temperature 82 °F 75 °F  
Max Temperature 90 °F 85 °F 93 °F (1983)
Min Temperature 73 °F 66 °F 61 °F (1981)
Degree Days  
Heating Degree Days 0 0  
Month to date heating degree days 0 0  
Since 1 June heating degree days 12 12  
Since 1 July heating degree days 0 0  
Cooling Degree Days 17 10  
Month to date cooling degree days 311 236  
Year to date cooling degree days 815 595  
Since 1 June cooling degree days 564 459  
Growing Degree Days 31 (Base 50)    
Moisture  
Dew Point 71 °F    
Average Humidity 75    
Maximum Humidity 93    
Minimum Humidity 56    
Precipitation  
Precipitation T in 0.16 in 0.97 in (1991)
Month to date precipitation 6.06 3.44  
Year to date precipitation 27.67 28.65  
Snow  
Snow 0.00 in 0.00 in - ()
Month to date snowfall 0.0 0.0  
Since 1 June snowfall 0.0 0.0  
Since 1 July snowfall 0.0 0.0  
Snow Depth 0.00 in    
Sea Level Pressure  
Sea Level Pressure 30.11 in    
Wind  
Wind Speed 2 mph (West)    
Max Wind Speed 9 mph    
Max Gust Speed 14 mph    
Visibility 10 miles    
Events      
T = Trace of Precipitation, MM = Missing Value Source: NWS Daily Summary

Daily Weather History Graph

Daily Weather History Graph

Search for Another Location

Airport or City:

Trip Planner

Search our weather history database for the weather conditions in past years. The results will help you decide how hot, cold, wet, or windy it might be!

Date:

Astronomy

Jul. 23, 2012 Rise Set
Actual Time 6:30 AM EDT 8:48 PM EDT
Civil Twilight 6:00 AM EDT 9:18 PM EDT
Nautical Twilight 5:23 AM EDT 9:54 PM EDT
Astronomical Twilight 4:43 AM EDT 10:34 PM EDT
Moon 11:12 AM EDT (7/23) 11:10 PM EDT (7/23)
Length of Visible Light 15h 17m
Length of Day
14h 18m
Waxing Crescent, 21% of the Moon is Illuminated
Jul 23
Waxing Crescent
Jul 26
First Quarter
Aug 1
Full
Aug 9
Last Quarter
Aug 17
New

Hourly Weather History & Observations

Time (EDT) Temp. Heat Index Dew Point Humidity Pressure Visibility Wind Dir Wind Speed Gust Speed Precip Events Conditions
12:53 AM 75.0 °F - 71.1 °F 87% 30.14 in 10.0 mi Calm Calm - N/A   Clear
1:53 AM 73.9 °F - 71.1 °F 91% 30.14 in 9.0 mi Calm Calm - N/A   Clear
2:53 AM 73.9 °F - 71.1 °F 91% 30.14 in 10.0 mi Calm Calm - N/A   Scattered Clouds
3:53 AM 73.0 °F - 71.1 °F 93% 30.14 in 10.0 mi Calm Calm - N/A   Partly Cloudy
4:53 AM 73.0 °F - 71.1 °F 93% 30.14 in 8.0 mi Calm Calm - N/A   Mostly Cloudy
5:53 AM 73.0 °F - 70.0 °F 90% 30.14 in 10.0 mi Calm Calm - N/A   Clear
6:53 AM 73.4 °F - 69.8 °F 88% 30.19 in 10.0 mi Calm Calm - N/A   Clear
7:53 AM 73.9 °F - 70.0 °F 87% 30.15 in 10.0 mi Calm Calm - N/A   Clear
8:53 AM 77.0 °F - 71.1 °F 82% 30.15 in 10.0 mi Calm Calm - N/A   Clear
9:53 AM 80.1 °F 83.8 °F 72.0 °F 76% 30.15 in 10.0 mi Calm Calm - N/A   Clear
10:28 AM 82.4 °F 88.2 °F 73.4 °F 74% 30.20 in 10.0 mi Variable 3.5 mph - N/A   Mostly Cloudy
10:53 AM 82.0 °F 86.3 °F 71.1 °F 69% 30.15 in 10.0 mi Variable 4.6 mph - N/A   Mostly Cloudy
11:26 AM 80.6 °F 84.6 °F 71.6 °F 74% 30.20 in 10.0 mi Variable 4.6 mph - N/A   Overcast
11:53 AM 81.0 °F 85.2 °F 72.0 °F 74% 30.15 in 10.0 mi Variable 3.5 mph - N/A   Overcast
12:53 PM 84.0 °F 89.6 °F 72.0 °F 67% 30.13 in 10.0 mi Variable 3.5 mph - N/A   Mostly Cloudy
1:53 PM 87.1 °F 93.6 °F 72.0 °F 61% 30.12 in 10.0 mi Variable 3.5 mph - N/A   Clear
2:53 PM 86.0 °F 92.2 °F 72.0 °F 63% 30.10 in 10.0 mi Calm Calm - 0.00 in   Partly Cloudy
3:53 PM 88.0 °F 94.7 °F 72.0 °F 59% 30.08 in 10.0 mi Variable 5.8 mph - N/A   Partly Cloudy
4:53 PM 89.1 °F 96.0 °F 72.0 °F 57% 30.05 in 10.0 mi Variable 5.8 mph - N/A   Partly Cloudy
5:53 PM 89.1 °F 95.0 °F 71.1 °F 55% 30.04 in 10.0 mi West 4.6 mph - N/A   Clear
6:53 PM 88.0 °F 94.7 °F 72.0 °F 59% 30.03 in 10.0 mi West 3.5 mph - N/A   Clear
7:53 PM 84.9 °F 90.1 °F 71.1 °F 63% 30.03 in 10.0 mi Variable 4.6 mph - N/A   Clear
8:53 PM 81.0 °F 84.4 °F 70.0 °F 69% 30.04 in 10.0 mi Calm Calm - N/A   Clear
9:53 PM 80.1 °F 83.2 °F 70.0 °F 71% 30.04 in 10.0 mi Calm Calm - N/A   Clear
10:53 PM 79.0 °F - 70.0 °F 74% 30.05 in 10.0 mi Calm Calm - N/A   Clear
11:53 PM 78.1 °F - 71.1 °F 79% 30.05 in 10.0 mi Variable 4.6 mph - N/A   Partly Cloudy